Simultaneous Nadir Overpasses (SNOs) Predictions

Prediction of SNOs between GOES-14 and NOAA-20 Satellite Orbit:

Table of predicted SNOs for the next 14.0 days since TLE Epoch: 2/20/2021
Index Date Time (GOES-14) GOES-14 Lat,Lon NOAA-20 Lat,Lon Distance(km) Time Diff (sec)
1 02/20/2021 08:30:05 0.01,-104.39 0.48,-106.54 244.48 80
2 02/21/2021 08:14:00 0.01,-104.40 -0.55,-102.01 272.66 80
3 02/22/2021 20:35:56 -0.02,-104.19 -0.68,-107.30 353.57 80
4 02/23/2021 20:14:30 -0.01,-104.18 0.29,-102.75 162.36 80
5 02/25/2021 08:36:18 0.02,-104.39 0.85,-108.03 415.74 80
6 02/26/2021 08:20:14 0.01,-104.39 -0.18,-103.50 101.31 80
7 02/28/2021 20:23:25 -0.02,-104.20 -0.02,-104.26 7.05 80
8 03/03/2021 08:23:48 0.02,-104.39 0.18,-104.99 69.98 80
9 03/04/2021 08:07:43 0.01,-104.39 -0.85,-100.47 447.13 80
10 03/05/2021 20:29:38 -0.02,-104.21 -0.37,-105.76 176.37 80
